Terminal Aerodrome Forecast
Issued by NWS North Platte, NE

Home | Current Version | Previous Version | Text Only | Print | Product List | Glossary On
Versions: 1 2 3 4 5 6 7 8 9 10 11 12 13 14 15 16 17 18 19 20 21 22 23 24 25 26 27 28 29 30
000
FTUS43 KLBF 301200 AAA
TAFLBF
TAF AMD
KLBF 301242Z 3013/3112 VRB03KT P6SM SCT120
     FM301500 16008KT P6SM SKC
     FM302100 17015KT P6SM SCT120
     FM310500 19012KT P6SM SCT040 BKN150=

USA.gov is the U.S. government's official web portal to all federal, state and local government web resources and services.